Weather History for Monett, MO

Change the Weather History Date:

Thursday, October 11, 2012

  Actual Average (KJLN) Record (KJLN)
Temperature  
Mean Temperature 59 °F 61 °F  
Max Temperature 68 °F 73 °F 90 °F (1979)
Min Temperature 50 °F 50 °F 33 °F (1987)
Degree Days  
Heating Degree Days 6 6  
Month to date heating degree days 52  
Since 1 July heating degree days 94  
Cooling Degree Days 0 2  
Month to date cooling degree days 27  
Year to date cooling degree days 1669  
Growing Degree Days 9 (Base 50)    
Moisture  
Dew Point 50 °F    
Average Humidity 72    
Maximum Humidity 88    
Minimum Humidity 58    
Precipitation  
Precipitation 0.00 in 0.12 in 3.40 in (1954)
Month to date precipitation 1.45  
Year to date precipitation 37.37  
Sea Level Pressure  
Sea Level Pressure 30.13 in    
Wind  
Wind Speed 6 mph (SSE)    
Max Wind Speed 13 mph    
Max Gust Speed -    
Visibility 10 miles    
Events      
T = Trace of Precipitation, MM = Missing Value Source: NWS Daily Summary

Daily Weather History Graph

Daily Weather History Graph

Search for Another Location

Airport:

Trip Planner

Search our weather history database for the weather conditions in past years. The results will help you decide how hot, cold, wet, or windy it might be!

Date:

Astronomy

Oct. 11, 2012 Rise Set
Actual Time 7:20 AM CDT 6:44 PM CDT
Civil Twilight 6:54 AM CDT 7:10 PM CDT
Nautical Twilight 6:24 AM CDT 7:40 PM CDT
Astronomical Twilight 5:54 AM CDT 8:10 PM CDT
Moon 3:05 AM CDT (10/11) 4:16 PM CDT (10/11)
Length of Visible Light 12h 15m
Length of Day
11h 23m
Waning Crescent, 18% of the Moon is Illuminated
Oct 11
Waning Crescent
Oct 15
New
Oct 21
First Quarter
Oct 29
Full
Nov 6
Last Quarter

Hourly Weather History & Observations

Time (CDT) Temp. Dew Point Humidity Pressure Visibility Wind Dir Wind Speed Gust Speed Precip Events Conditions
12:15 AM 50.0 °F 35.6 °F 58% 30.16 in 10.0 mi ESE 8.1 mph - N/A   Mostly Cloudy
12:35 AM 50.0 °F 35.6 °F 58% 30.16 in 10.0 mi ESE 6.9 mph - N/A   Overcast
1:35 AM 50.0 °F 37.4 °F 62% 30.15 in 10.0 mi ESE 4.6 mph - N/A   Overcast
1:55 AM 50.0 °F 37.4 °F 62% 30.15 in 10.0 mi SE 4.6 mph - N/A   Overcast
2:15 AM 51.8 °F 39.2 °F 62% 30.15 in 10.0 mi SE 5.8 mph - N/A   Overcast
2:55 AM 51.8 °F 41.0 °F 67% 30.15 in 10.0 mi SE 4.6 mph - N/A   Overcast
3:15 AM 51.8 °F 41.0 °F 67% 30.14 in 10.0 mi SE 4.6 mph - N/A   Overcast
3:35 AM 51.8 °F 41.0 °F 67% 30.14 in 10.0 mi SE 4.6 mph - N/A   Overcast
3:55 AM 51.8 °F 41.0 °F 67% 30.13 in 10.0 mi SE 3.5 mph - N/A   Overcast
4:15 AM 53.6 °F 41.0 °F 62% 30.13 in 10.0 mi ESE 3.5 mph - N/A   Overcast
4:35 AM 51.8 °F 42.8 °F 71% 30.13 in 10.0 mi SE 4.6 mph - N/A   Overcast
4:55 AM 53.6 °F 42.8 °F 67% 30.14 in 10.0 mi SE 3.5 mph - N/A   Overcast
5:15 AM 53.6 °F 42.8 °F 67% 30.14 in 10.0 mi SE 4.6 mph - N/A   Overcast
5:35 AM 53.6 °F 42.8 °F 67% 30.14 in 10.0 mi SE 3.5 mph - N/A   Overcast
5:55 AM 53.6 °F 42.8 °F 67% 30.14 in 10.0 mi SE 4.6 mph - N/A   Overcast
6:15 AM 53.6 °F 42.8 °F 67% 30.15 in 10.0 mi SE 4.6 mph - N/A   Overcast
6:35 AM 53.6 °F 42.8 °F 67% 30.15 in 10.0 mi SE 5.8 mph - N/A   Overcast
6:55 AM 53.6 °F 42.8 °F 67% 30.15 in 10.0 mi SE 5.8 mph - N/A   Overcast
7:35 AM 53.6 °F 42.8 °F 67% 30.15 in 10.0 mi SSE 6.9 mph - N/A   Overcast
7:55 AM 55.4 °F 42.8 °F 63% 30.15 in 10.0 mi SSE 5.8 mph - N/A   Overcast
8:15 AM 55.4 °F 44.6 °F 67% 30.15 in 10.0 mi SSE 6.9 mph - N/A   Overcast
8:35 AM 55.4 °F 44.6 °F 67% 30.16 in 10.0 mi SSE 6.9 mph - N/A   Overcast
8:55 AM 55.4 °F 44.6 °F 67% 30.16 in 10.0 mi SSE 6.9 mph - N/A   Overcast
9:15 AM 55.4 °F 44.6 °F 67% 30.16 in 10.0 mi SSE 9.2 mph - N/A   Overcast
9:35 AM 55.4 °F 46.4 °F 72% 30.17 in 10.0 mi SE 6.9 mph - N/A   Overcast
9:55 AM 57.2 °F 46.4 °F 67% 30.17 in 10.0 mi SE 6.9 mph - N/A   Overcast
10:15 AM 59.0 °F 46.4 °F 63% 30.17 in 10.0 mi SSE 6.9 mph - N/A   Overcast
10:35 AM 59.0 °F 48.2 °F 67% 30.17 in 10.0 mi SSE 8.1 mph - N/A   Overcast
10:55 AM 60.8 °F 48.2 °F 63% 30.17 in 10.0 mi South 9.2 mph - N/A   Overcast
11:15 AM 60.8 °F 50.0 °F 68% 30.17 in 10.0 mi South 8.1 mph - N/A   Overcast
11:35 AM 60.8 °F 50.0 °F 68% 30.16 in 10.0 mi South 8.1 mph - N/A   Overcast
11:55 AM 60.8 °F 50.0 °F 68% 30.16 in 10.0 mi SSE 8.1 mph - N/A   Overcast
12:15 PM 62.6 °F 51.8 °F 68% 30.15 in 10.0 mi SSE 5.8 mph - N/A   Overcast
12:55 PM 62.6 °F 53.6 °F 72% 30.14 in 10.0 mi South 9.2 mph - N/A   Overcast
1:15 PM 64.4 °F 55.4 °F 73% 30.13 in 10.0 mi South 11.5 mph - N/A   Overcast
1:35 PM 62.6 °F 55.4 °F 77% 30.13 in 10.0 mi South 12.7 mph - N/A   Overcast
1:55 PM 64.4 °F 55.4 °F 73% 30.12 in 10.0 mi SSW 8.1 mph - N/A   Overcast
2:35 PM 64.4 °F 55.4 °F 73% 30.10 in 10.0 mi South 11.5 mph - N/A   Overcast
2:55 PM 66.2 °F 57.2 °F 73% 30.09 in 10.0 mi South 10.4 mph - N/A   Overcast
3:15 PM 66.2 °F 57.2 °F 73% 30.09 in 10.0 mi SSE 10.4 mph - N/A   Overcast
3:35 PM 66.2 °F 59.0 °F 78% 30.09 in 10.0 mi South 10.4 mph - N/A   Overcast
3:55 PM 68.0 °F 59.0 °F 73% 30.08 in 10.0 mi SSW 12.7 mph - N/A   Overcast
4:15 PM 68.0 °F 59.0 °F 73% 30.07 in 10.0 mi South 11.5 mph - N/A   Overcast
4:35 PM 68.0 °F 59.0 °F 73% 30.07 in 10.0 mi SSE 11.5 mph - N/A   Overcast
5:35 PM 68.0 °F 60.8 °F 78% 30.07 in 10.0 mi South 8.1 mph - N/A   Mostly Cloudy
5:55 PM 68.0 °F 60.8 °F 78% 30.07 in 10.0 mi South 8.1 mph - N/A   Overcast
6:35 PM 68.0 °F 60.8 °F 78% 30.07 in 10.0 mi South 5.8 mph - N/A   Overcast
6:55 PM 68.0 °F 60.8 °F 78% 30.08 in 10.0 mi South 4.6 mph - N/A   Overcast
7:15 PM 66.2 °F 60.8 °F 83% 30.08 in 10.0 mi SSE 6.9 mph - N/A   Overcast
7:35 PM 66.2 °F 60.8 °F 83% 30.09 in 10.0 mi SSE 5.8 mph - N/A   Overcast
8:15 PM 66.2 °F 60.8 °F 83% 30.11 in 10.0 mi SE 3.5 mph - N/A   Overcast
8:35 PM 64.4 °F 60.8 °F 88% 30.12 in 10.0 mi ESE 5.8 mph - N/A   Overcast
8:55 PM 62.6 °F 57.2 °F 82% 30.13 in 10.0 mi East 5.8 mph - N/A   Overcast
9:15 PM 62.6 °F 55.4 °F 77% 30.14 in 10.0 mi Calm Calm - N/A   Overcast
9:35 PM 60.8 °F 55.4 °F 82% 30.14 in 10.0 mi ESE 6.9 mph - N/A   Overcast
9:55 PM 60.8 °F 55.4 °F 82% 30.14 in 10.0 mi ESE 4.6 mph - N/A   Overcast
10:35 PM 60.8 °F 55.4 °F 82% 30.15 in 10.0 mi SE 6.9 mph - N/A   Mostly Cloudy
10:55 PM 60.8 °F 55.4 °F 82% 30.16 in 10.0 mi Calm Calm - N/A   Overcast
11:15 PM 60.8 °F 55.4 °F 82% 30.15 in 10.0 mi ESE 4.6 mph - N/A   Overcast
11:35 PM 59.0 °F 55.4 °F 88% 30.16 in 10.0 mi ESE 4.6 mph - N/A   Overcast
11:55 PM 59.0 °F 55.4 °F 88% 30.16 in 10.0 mi ESE 4.6 mph - N/A   Overcast